| time (UTC) | temp F | wind direction | speed MPH | gust MPH | rain 1hr in | rain 24hr in | rain mn in | humidity % | barometer mb |
| 20260506203306 | 37 | 210 | 6.0 | 0.0 | 0.00 | 0.00 | 0.00 | 86 | 1012.0 |
| 20260506200306 | 37 | 140 | 6.0 | 0.0 | 0.00 | 0.00 | 0.00 | 93 | 1012.0 |
| 20260506193307 | 39 | 150 | 9.0 | 0.0 | 0.00 | 0.00 | 0.00 | 86 | 1012.0 |
| 20260506190306 | 37 | 100 | 7.0 | 0.0 | 0.00 | 0.00 | 0.00 | 93 | 1011.0 |
| 20260506183307 | 35 | 110 | 7.0 | 0.0 | 0.00 | 0.00 | 0.00 | 93 | 1012.0 |
| 20260506180307 | 35 | 230 | 7.0 | 0.0 | 0.00 | 0.00 | 0.00 | 93 | 1012.0 |
| 20260506173308 | 37 | 290 | 5.0 | 0.0 | 0.00 | 0.00 | 0.00 | 93 | 1012.0 |
| 20260506170307 | 37 | 300 | 10.0 | 0.0 | 0.00 | 0.00 | 0.00 | 86 | 1011.0 |
| 20260506163307 | 41 | 200 | 9.0 | 0.0 | 0.00 | 0.00 | 0.00 | 80 | 1011.0 |
| 20260506160307 | 41 | 200 | 9.0 | 0.0 | 0.00 | 0.00 | 0.00 | 80 | 1011.0 |
| 20260506153307 | 39 | 190 | 10.0 | 0.0 | 0.00 | 0.00 | 0.00 | 86 | 1011.0 |
| 20260506150307 | 39 | 200 | 10.0 | 0.0 | 0.00 | 0.00 | 0.00 | 86 | 1011.0 |
| 20260506143307 | 39 | 280 | 12.0 | 0.0 | 0.00 | 0.00 | 0.00 | 86 | 1011.0 |
| 20260506140307 | 41 | 280 | 6.0 | 0.0 | 0.00 | 0.00 | 0.00 | 80 | 1011.0 |
| 20260506133307 | 41 | 290 | 9.0 | 0.0 | 0.00 | 0.00 | 0.00 | 80 | 1010.0 |
| 20260506130308 | 39 | 200 | 8.0 | 0.0 | 0.00 | 0.00 | 0.00 | 86 | 1010.0 |
| 20260506123307 | 42 | 220 | 16.0 | 0.0 | 0.00 | 0.00 | 0.00 | 75 | 1010.0 |
| 20260506120308 | 41 | 230 | 17.0 | 0.0 | 0.00 | 0.00 | 0.00 | 80 | 1010.0 |
| 20260506113308 | 41 | 230 | 15.0 | 0.0 | 0.00 | 0.00 | 0.00 | 80 | 1010.0 |
| 20260506110307 | 42 | 220 | 16.0 | 0.0 | 0.00 | 0.00 | 0.00 | 75 | 1009.0 |
| 20260506103306 | 41 | 220 | 16.0 | 0.0 | 0.00 | 0.00 | 0.00 | 86 | 1009.0 |
| 20260506100308 | 41 | 230 | 14.0 | 0.0 | 0.00 | 0.00 | 0.00 | 86 | 1009.0 |
| 20260506093307 | 42 | 240 | 10.0 | 0.0 | 0.00 | 0.00 | 0.00 | 81 | 1009.0 |
| 20260506090307 | 41 | 240 | 10.0 | 0.0 | 0.00 | 0.00 | 0.00 | 80 | 1009.0 |
| 20260506083307 | 39 | 260 | 12.0 | 0.0 | 0.00 | 0.00 | 0.00 | 86 | 1008.0 |
| 20260506073307 | 39 | 250 | 12.0 | 0.0 | 0.00 | 0.00 | 0.00 | 86 | 1008.0 |
| 20260506070306 | 39 | 210 | 9.0 | 0.0 | 0.00 | 0.00 | 0.00 | 80 | 1008.0 |
| 20260506060306 | 39 | 260 | 13.0 | 0.0 | 0.00 | 0.00 | 0.00 | 80 | 1007.0 |
| 20260506050306 | 37 | 220 | 10.0 | 0.0 | 0.00 | 0.00 | 0.00 | 86 | 1007.0 |
| 20260506043307 | 37 | 260 | 10.0 | 0.0 | 0.00 | 0.00 | 0.00 | 86 | 1007.0 |
| 20260506040307 | 37 | 260 | 13.0 | 0.0 | 0.00 | 0.00 | 0.00 | 86 | 1007.0 |
| 20260506033307 | 39 | 250 | 12.0 | 0.0 | 0.00 | 0.00 | 0.00 | 80 | 1007.0 |
| 20260506030307 | 37 | 260 | 8.0 | 0.0 | 0.00 | 0.00 | 0.00 | 86 | 1007.0 |
| 20260506023306 | 37 | 310 | 8.0 | 0.0 | 0.00 | 0.00 | 0.00 | 80 | 1006.0 |
| 20260506020306 | 37 | 240 | 8.0 | 0.0 | 0.00 | 0.00 | 0.00 | 86 | 1006.0 |
| 20260506013307 | 37 | 250 | 12.0 | 0.0 | 0.00 | 0.00 | 0.00 | 86 | 1006.0 |
| 20260506010307 | 37 | 260 | 13.0 | 0.0 | 0.00 | 0.00 | 0.00 | 86 | 1006.0 |
| 20260506003306 | 35 | 70 | 12.0 | 0.0 | 0.00 | 0.00 | 0.00 | 93 | 1006.0 |
| 20260506000307 | 35 | 120 | 7.0 | 0.0 | 0.00 | 0.00 | 0.00 | 93 | 1005.0 |
| 20260505233307 | 33 | 0 | 3.0 | 0.0 | 0.00 | 0.00 | 0.00 | 93 | 1006.0 |
| 20260505230306 | 35 | 10 | 9.0 | 0.0 | 0.00 | 0.00 | 0.00 | 93 | 1006.0 |
| 20260505223306 | 35 | 170 | 7.0 | 0.0 | 0.00 | 0.00 | 0.00 | 93 | 1005.0 |
| 20260505220306 | 35 | 270 | 9.0 | 0.0 | 0.00 | 0.00 | 0.00 | 93 | 1005.0 |
| 20260505213306 | 37 | 330 | 9.0 | 0.0 | 0.00 | 0.00 | 0.00 | 86 | 1005.0 |
| 20260505210306 | 35 | 270 | 7.0 | 0.0 | 0.00 | 0.00 | 0.00 | 93 | 1005.0 |